Lexington Weather

Lexington, Massachusetts, USA

68°F
7/3/2020 12:55pm 
  • Lexington Conditions: Overcast
  • Temperature: 67.8°F / 19.9°CColder 0.7°F than last hour.
  • Dew Point: 63.9°FDecreased 0.7°Fsince last hour.
  • Relative Humidity: 87
  • Wind: Wind from NNE NNE 2 mph, 10-min avg: 1 mph, gust: 9 mph
  • Barometer: 29.86 in Steady
  • Visibility: 10 miles
  • Rain Today: 0.00 in
  •   

Regional Weather Roundup
for Boston / Norton, MA

        
000
ASUS41 KBOX 280304
RWRBOX

REGIONAL WEATHER ROUNDUP
NATIONAL WEATHER SERVICE BOSTON/NORTON MA
1100 PM EDT SAT JUN 27 2020

NOTE:  "FAIR" INDICATES FEW OR NO CLOUDS BELOW 12,000 FEET WITH NO 
SIGNIFICANT WEATHER AND/OR OBSTRUCTIONS TO VISIBILITY.

MAZALL-280400-
EASTERN MASSACHUSETTS
  
CITY           SKY/WX    TMP DP  RH WIND       PRES   REMARKS
BOSTON         CLOUDY    67  63  87 CALM      29.70F                  
BEVERLY        CLOUDY    68  64  87 S3        29.69F                  
LAWRENCE       CLOUDY    71  62  73 CALM      29.72F                  
BEDFORD        CLOUDY    69  63  81 NW3       29.69F                  
BLUE HILL        N/A     65  64  97 N5        29.70F                  
NORWOOD        CLOUDY    69  65  86 CALM      29.70F                  
MARSHFIELD     CLOUDY    68  68 100 CALM      29.68F                  
PLYMOUTH       CLOUDY    67  66  97 NE6       29.68F FOG              
TAUNTON        CLOUDY    69  66  90 CALM      29.69S FOG              
NEW BEDFORD    CLOUDY    69  68  96 CALM      29.68S                  
$$

MAZALL-280400-
CAPE COD AND THE ISLANDS
  
CITY           SKY/WX    TMP DP  RH WIND       PRES   REMARKS
FALMOUTH       MOCLDY    68  68 100 N3        29.68S FOG              
HYANNIS        CLOUDY    72  69  90 W8        29.65F FOG              
CHATHAM        CLOUDY    66  64  93 SW5       29.67F FOG              
PROVINCETOWN   CLOUDY    66  65  96 E7        29.68F FOG              
NANTUCKET      MOCLDY    67  64  90 SW14      29.68F                  
MARTHAS VNYRD  CLOUDY    68  67  96 W8        29.68R FOG              
$$
 
MAZALL-280400-
CENTRAL AND WESTERN MASSACHUSETTS
  
CITY           SKY/WX    TMP DP  RH WIND       PRES   REMARKS
WORCESTER      PTCLDY    64  61  90 NW5       29.73F                  
FITCHBURG      PTCLDY    67  60  78 N3        29.72F                  
ORANGE         CLOUDY    67  63  87 NW3       29.74F                  
SPRINGFIELD    CLOUDY    66  66  99 CALM      29.73S                  
WESTFIELD      MOCLDY    66  64  93 W3        29.74S                  
NORTH ADAMS    CLOUDY    65  63  93 SW5       29.73F                  
PITTSFIELD     CLOUDY    65  62  90 W5        29.75F                  
$$
 
RIZALL-280400-
RHODE ISLAND
  
CITY           SKY/WX    TMP DP  RH WIND       PRES   REMARKS
PROVIDENCE     DRIZZLE   68  67  96 NW8       29.71R FOG              
NEWPORT        CLOUDY    70  67  90 NW7       29.70R FOG              
BLOCK ISLAND   MOCLDY    65  64  97 W10       29.74R                  
SMITHFIELD     CLOUDY    65  65 100 NW5       29.71F FOG              
WESTERLY       CLOUDY    70  64  81 CALM      29.73R                  
$$
 
CTZALL-280400-
CONNECTICUT
  
CITY           SKY/WX    TMP DP  RH WIND       PRES   REMARKS
BRADLEY INTL   MOCLDY    64  63  96 W5        29.73F                  
HARTFORD       MOCLDY    66  63  90 CALM      29.73F                  
BRIDGEPORT     CLOUDY    72  67  84 NW3       29.76R                  
DANBURY        MOCLDY    66  65  96 CALM      29.78R                  
GROTON         MOCLDY    67  64  90 NW9       29.73R                  
NEW HAVEN      CLOUDY    69  66  90 CALM      29.75R                  
CHESTER        NOT AVBL                                               
MERIDEN        MOCLDY    64  62  93 CALM      29.75S                  
WILLIMANTIC    MOCLDY    66  65  96 SW3       29.73S                  
OXFORD         MOCLDY    65  64  97 CALM      29.78R                  
$$

MEZ002-015-021-024-NHZ003-005-008-011-012-014-VTZ005-008-280400-
NORTHERN NEW ENGLAND
  
CITY           SKY/WX    TMP DP  RH WIND       PRES   REMARKS
PORTLAND ME    MOCLDY    68  61  78 CALM      29.72R                  
BANGOR ME      MOCLDY    66  56  70 SE3       29.73F                  
CONCORD NH     CLOUDY    68  62  81 E3        29.70F                  
MANCHESTER NH  CLOUDY    72  62  71 CALM      29.69F                  
NASHUA NH      PTCLDY    69  66  90 CALM      29.71F                  
PORTSMOUTH NH  MOCLDY    70  63  78 CALM      29.69F                  
JAFFREY NH     CLOUDY    67  60  78 W3        29.74F                  
KEENE NH       MOCLDY    65  62  90 SW3       29.72F                  
BURLINGTON VT  MOCLDY    67  61  81 S8        29.69F                  
MT. WASHINGTON FOG       48  46  93 S7          N/A  VSB 1/8          
$$

NYZ052-076-280400-
EASTERN NEW YORK
  
CITY           SKY/WX    TMP DP  RH WIND       PRES   REMARKS
ALBANY         MOCLDY    67  63  87 S5        29.73F                  
NEW YORK CITY  MOCLDY    80  68  66 CALM      29.75R                  
$$
 
ANZALL-280400-
MARINE OBSERVATIONS
  
STATION/POSITION TIME  TEMP    WIND        PRES    VSBY  WAVE
                       AIR SEA DIR/SP/G                  HT/PER
                 (UTC) (F)     (DEG/KT/KT) (MB)    (MI)  (FT/S)
BOSTON BUOY      0250   66 68  140/  2/  4 1004.5F         1/ 8
BUZZARDS BAY     0200          270/ 15/ 16 1005.9R
NANTUCKET SOUND  0250   69 69  250/ 14/ 17 1003.9F         1/ 3
MASS BAY-STELLWA 0204   65      50/  2/  4 1003.9S  1 7/8  2/ 8
ISLE OF SHOALS   0200   69     220/ 12/ 12 1005.5F
S OF BLOCK IS    0226      69                N/A           4/ 5
$$

......................KEY.........................
  SKY/WX - SKY CONDITION/PRESENT WEATHER
  TMP    - TEMPERATURE IN FAHRENHEIT
  DWPT   - DEWPOINT IN FAHRENHEIT
  RH     - RELATIVE HUMIDITY IN PERCENT
  WIND   - DIRECTION AND SPEED IN MPH
  PRES   - MEAN SEA LEVEL PRESSURE IN INCHES OF HG
  WCI    - WIND CHILL INDEX
  VSB    - VISIBILITY IN MILES
  HX     - HEAT INDEX
  TC     - TEMPERATURE IN CELSIUS
  VRB    - VARIABLE WIND DIRECTION
  N/A    - NOT AVAILABLE
  
      

Other recent Regional Weather Roundups

Fri Jul 3, 12:04pm

Fri Jul 3, 11:04am

Fri Jul 3, 10:04am

Fri Jul 3, 9:04am

Fri Jul 3, 8:04am

Fri Jul 3, 7:04am

Fri Jul 3, 6:04am

Fri Jul 3, 5:04am

Fri Jul 3, 4:04am

Fri Jul 3, 3:04am

Fri Jul 3, 2:04am

Fri Jul 3, 1:04am

Fri Jul 3, 12:04am

Thu Jul 2, 11:05pm

Thu Jul 2, 10:04pm

Thu Jul 2, 9:04pm

Thu Jul 2, 8:04pm

Thu Jul 2, 7:05pm

Thu Jul 2, 6:04pm

Thu Jul 2, 5:05pm

Thu Jul 2, 4:04pm

Thu Jul 2, 3:04pm

Thu Jul 2, 2:04pm

Thu Jul 2, 1:05pm

Thu Jul 2, 12:04pm

Thu Jul 2, 11:04am

Thu Jul 2, 10:05am

Thu Jul 2, 9:05am

Thu Jul 2, 8:04am

Thu Jul 2, 7:04am

Thu Jul 2, 6:05am

Thu Jul 2, 5:04am

Thu Jul 2, 4:04am

Thu Jul 2, 3:04am

Thu Jul 2, 2:04am

Thu Jul 2, 1:04am

Thu Jul 2, 12:05am

Wed Jul 1, 11:05pm

Wed Jul 1, 10:04pm

Wed Jul 1, 9:04pm

Wed Jul 1, 8:04pm

Wed Jul 1, 7:04pm

Wed Jul 1, 6:04pm

Wed Jul 1, 5:05pm

Wed Jul 1, 4:04pm

Wed Jul 1, 3:04pm

Wed Jul 1, 2:04pm

Wed Jul 1, 1:04pm

Wed Jul 1, 12:04pm

Wed Jul 1, 11:04am

Wed Jul 1, 10:04am

Wed Jul 1, 9:04am

Wed Jul 1, 8:05am

Wed Jul 1, 7:04am

Wed Jul 1, 6:04am

Wed Jul 1, 5:04am

Wed Jul 1, 4:04am

Wed Jul 1, 3:04am

Wed Jul 1, 2:04am

Wed Jul 1, 1:04am

Wed Jul 1, 12:04am

Tue Jun 30, 11:04pm

Tue Jun 30, 10:05pm

Tue Jun 30, 9:04pm

Tue Jun 30, 8:05pm

Tue Jun 30, 7:05pm

Tue Jun 30, 6:04pm

Tue Jun 30, 5:04pm

Tue Jun 30, 4:04pm

Tue Jun 30, 3:04pm

Tue Jun 30, 2:04pm

Tue Jun 30, 1:04pm

Tue Jun 30, 12:04pm

Tue Jun 30, 11:04am

Tue Jun 30, 10:04am

Tue Jun 30, 9:04am

Tue Jun 30, 8:04am

Tue Jun 30, 7:04am

Tue Jun 30, 6:04am

Tue Jun 30, 5:04am

Tue Jun 30, 4:04am

Tue Jun 30, 3:04am

Tue Jun 30, 2:04am

Tue Jun 30, 1:04am

Tue Jun 30, 12:04am

Mon Jun 29, 11:04pm

Mon Jun 29, 10:05pm

Mon Jun 29, 9:04pm

Mon Jun 29, 8:05pm

Mon Jun 29, 7:04pm

Mon Jun 29, 6:04pm

Mon Jun 29, 5:04pm

Mon Jun 29, 4:05pm

Mon Jun 29, 3:04pm

Mon Jun 29, 2:04pm

Mon Jun 29, 1:04pm

Mon Jun 29, 12:04pm

Mon Jun 29, 11:04am

Mon Jun 29, 10:04am

Mon Jun 29, 9:04am

Mon Jun 29, 8:04am

Mon Jun 29, 7:04am

Mon Jun 29, 6:04am

Mon Jun 29, 5:04am

Mon Jun 29, 4:04am

Mon Jun 29, 3:04am

Mon Jun 29, 2:04am

Mon Jun 29, 1:04am

Mon Jun 29, 12:04am

Sun Jun 28, 11:05pm

Sun Jun 28, 10:04pm

Sun Jun 28, 9:05pm

Sun Jun 28, 8:04pm

Sun Jun 28, 7:04pm

Sun Jun 28, 6:04pm

Sun Jun 28, 5:04pm

Sun Jun 28, 4:04pm

Sun Jun 28, 3:04pm

Sun Jun 28, 2:05pm

Sun Jun 28, 1:04pm

Sun Jun 28, 12:04pm

Sun Jun 28, 11:04am

Sun Jun 28, 10:04am

Sun Jun 28, 9:04am

Sun Jun 28, 8:04am

Sun Jun 28, 7:04am

Sun Jun 28, 6:04am

Sun Jun 28, 5:04am

Sun Jun 28, 4:04am

Sun Jun 28, 3:04am

Sun Jun 28, 2:05am

Sun Jun 28, 1:04am

Sun Jun 28, 12:05am

Sat Jun 27, 10:04pm

Sat Jun 27, 9:04pm

Sat Jun 27, 8:04pm

Sat Jun 27, 7:04pm

Sat Jun 27, 6:04pm

Sat Jun 27, 5:04pm

Sat Jun 27, 4:05pm

Sat Jun 27, 3:04pm

Sat Jun 27, 2:04pm

Sat Jun 27, 1:05pm

Sat Jun 27, 12:04pm

Sat Jun 27, 11:04am

Sat Jun 27, 10:04am

Sat Jun 27, 9:04am

Sat Jun 27, 8:04am

Sat Jun 27, 7:04am

Sat Jun 27, 6:04am

Sat Jun 27, 5:05am

Sat Jun 27, 4:04am

Sat Jun 27, 3:04am

Sat Jun 27, 2:04am

Sat Jun 27, 1:04am

Sat Jun 27, 12:04am

Fri Jun 26, 11:04pm

Fri Jun 26, 10:04pm

Fri Jun 26, 9:05pm

Fri Jun 26, 8:04pm

Fri Jun 26, 7:05pm

Fri Jun 26, 6:04pm

Fri Jun 26, 5:04pm

Fri Jun 26, 4:04pm

Fri Jun 26, 3:04pm

Fri Jun 26, 2:05pm

Fri Jun 26, 1:04pm

Meta data:

ID: c16a73e8-80a8-463a-897f-5e82eb96c6da
Link: https://api.weather.gov/products/c16a73e8-80a8-463a-897f-5e82eb96c6da